Flag for U.S.A. Weather past 2 weeks in Dover, Delaware, U.S.A.

Now
73 °F

Passing clouds.


Feels Like: 68 °F
Forecast: 71 / 87 °F
Wind: 8 mph from South

Location: Dover Air Force Base

Current Time: Aug 31, 2014 at 5:08:24 AM

Latest Report: Aug 31, 2014 at 3:58 AM


Visibility: 10 mi

Pressure: 30.13 "Hg

Humidity: 100%

Dew point: 73 °F

Location of DoverLocation

Historic Weather in Dover — Graph

°F

Dover temperature yesterday

Maximum temperature yesterday: 79 °F (at 12:58 PM)
Minimum temperature yesterday: 61 °F (at 3:58 AM)
Average temperature yesterday: 71 °F

Past Weeks' High & Low Weather Summary

 TemperatureHumidityPressure
High86 °F (Aug 27, 3:58 PM)100% (Aug 17, 3:58 AM)30.25 "Hg (Aug 17, 3:58 AM)
Low54 °F (Aug 29, 5:58 AM)42% (Aug 20, 4:58 PM)29.82 "Hg (Aug 19, 2:58 AM)
Average72 °F79%30.02 "Hg
* Reported Aug 16 3:58 AM — Aug 31 3:58 AM, Dover, Weather by CustomWeather, © 2014

Note: Actual official high and low records may vary slightly from our data, if they occured in-between our weather recording intervals... More about our weather records

Advertising

Dover weather history for previous 24 hours

 ConditionsComfort  
Time TempWeatherWind HumidityBarometerVisibility
3:58 AM
Aug 31
73 °FPassing clouds.8 mph100%30.13 "Hg10 mi
2:58 AM72 °FPassing clouds.8 mph98%30.13 "Hg10 mi
1:58 AM72 °FPassing clouds.8 mph91%30.13 "Hg10 mi
12:58 AM71 °FOvercast.7 mph89%30.16 "Hg10 mi
11:58 PM
Aug 30
71 °FOvercast.6 mph88%30.16 "Hg10 mi
10:58 PM70 °FClear.5 mph88%30.16 "Hg10 mi
9:58 PM72 °FClear.8 mph84%30.16 "Hg10 mi
8:58 PM73 °FClear.8 mph82%30.16 "Hg10 mi
7:58 PM74 °FSunny.8 mph81%30.14 "Hg10 mi
6:58 PM76 °FPartly sunny.7 mph81%30.14 "Hg10 mi
5:58 PM77 °FOvercast.8 mph77%30.16 "Hg10 mi
4:58 PM77 °FPartly sunny.10 mph76%30.17 "Hg10 mi
3:58 PM78 °FScattered clouds.8 mph72%30.17 "Hg10 mi
2:58 PM78 °FPartly sunny.9 mph71%30.19 "Hg10 mi
1:58 PM79 °FPartly sunny.6 mph67%30.22 "Hg10 mi
12:58 PM79 °FOvercast.7 mph62%30.23 "Hg10 mi
11:58 AM77 °FOvercast.10 mph67%30.25 "Hg10 mi
10:58 AM75 °FOvercast.8 mph70%30.25 "Hg10 mi
9:58 AM73 °FOvercast.8 mph74%30.25 "Hg10 mi
9:00 AM72 °FMostly cloudy.9 mph78%30.23 "Hg10 mi
7:58 AM64 °FPartly sunny.1 mph100%30.25 "Hg10 mi
6:58 AM61 °FPassing clouds.1 mph100%30.24 "Hg10 mi
5:58 AM61 °FPassing clouds.2 mph100%30.23 "Hg10 mi
Weather by CustomWeather, © 2014

See weather overviewHow to use our weather pages